| time (UTC) | temp C | wind direction | speed KPH | gust KPH | rain 1hr cm | rain 24hr cm | rain mn cm | humidity % | barometer mb |
| 20260504173029 | 8 | 200 | 77.2 | 91.7 | 0.00 | 0.00 | 0.00 | 80 | 1001.4 |
| 20260504171527 | 8 | 200 | 70.8 | 85.3 | 0.00 | 0.00 | 0.00 | 80 | 1001.6 |
| 20260504081533 | 0 | 347 | 0.0 | 6.4 | 0.00 | 0.00 | 0.00 | 81 | 1004.6 |
| 20260504044549 | 2 | 315 | 0.0 | 1.6 | 0.00 | 0.00 | 0.00 | 70 | 1005.1 |
| 20260504043055 | 2 | 325 | 0.0 | 20.9 | 0.00 | 0.00 | 0.00 | 70 | 1005.1 |
| 20260504041545 | 2 | 8 | 8.0 | 30.6 | 0.00 | 0.00 | 0.00 | 69 | 1004.9 |
| 20260504040042 | 2 | 27 | 19.3 | 32.2 | 0.00 | 0.00 | 0.00 | 69 | 1004.9 |
| 20260504034541 | 2 | 8 | 6.4 | 43.5 | 0.00 | 0.00 | 0.00 | 69 | 1005.0 |
| 20260504033040 | 3 | 32 | 30.6 | 38.6 | 0.00 | 0.00 | 0.00 | 67 | 1004.9 |
| 20260504031639 | 3 | 31 | 22.5 | 37.0 | 0.00 | 0.00 | 0.00 | 66 | 1004.9 |
| 20260504030036 | 3 | 13 | 30.6 | 49.9 | 0.00 | 0.00 | 0.00 | 65 | 1004.9 |
| 20260504024535 | 3 | 17 | 27.4 | 40.2 | 0.00 | 0.00 | 0.00 | 66 | 1005.1 |
| 20260504023034 | 3 | 2 | 6.4 | 29.0 | 0.00 | 0.00 | 0.00 | 67 | 1005.2 |
| 20260504021531 | 3 | 13 | 8.0 | 33.8 | 0.00 | 0.00 | 0.00 | 66 | 1005.2 |
| 20260504020044 | 4 | 345 | 8.0 | 24.1 | 0.00 | 0.00 | 0.00 | 66 | 1005.3 |
| 20260504014538 | 4 | 356 | 0.0 | 29.0 | 0.00 | 0.00 | 0.00 | 63 | 1005.5 |
| 20260504013037 | 5 | 9 | 1.6 | 17.7 | 0.00 | 0.00 | 0.00 | 64 | 1005.5 |
| 20260504011529 | 5 | 33 | 3.2 | 30.6 | 0.00 | 0.00 | 0.00 | 61 | 1005.6 |
| 20260504010029 | 5 | 21 | 29.0 | 41.8 | 0.00 | 0.00 | 0.00 | 59 | 1005.5 |
| 20260504004533 | 6 | 25 | 27.4 | 46.7 | 0.00 | 0.00 | 0.00 | 59 | 1005.4 |
| 20260504003027 | 6 | 20 | 25.7 | 48.3 | 0.00 | 0.00 | 0.00 | 58 | 1005.4 |
| 20260504001527 | 6 | 25 | 22.5 | 57.9 | 0.00 | 0.00 | 0.00 | 57 | 1005.1 |
| 20260504000027 | 7 | 1 | 29.0 | 59.5 | 0.00 | 0.00 | 0.00 | 57 | 1005.1 |
| 20260503234526 | 7 | 26 | 17.7 | 56.3 | 0.00 | 0.00 | 0.00 | 56 | 1004.9 |
| 20260503233024 | 8 | 19 | 11.3 | 33.8 | 0.00 | 0.00 | 0.00 | 64 | 1004.6 |
| 20260503231524 | 8 | 20 | 8.0 | 33.8 | 0.00 | 0.00 | 0.00 | 66 | 1004.5 |
| 20260503230024 | 8 | 14 | 0.0 | 0.0 | 0.00 | 0.00 | 0.00 | 69 | 1004.4 |
| 20260503224523 | 8 | 14 | 0.0 | 3.2 | 0.00 | 0.00 | 0.00 | 68 | 1004.5 |
| 20260503223023 | 8 | 14 | 0.0 | 24.1 | 0.00 | 0.00 | 0.00 | 67 | 1004.5 |
| 20260503221522 | 8 | 25 | 0.0 | 9.7 | 0.00 | 0.00 | 0.00 | 66 | 1004.4 |
| 20260503220022 | 8 | 41 | 22.5 | 30.6 | 0.00 | 0.00 | 0.00 | 64 | 1004.3 |
| 20260503214521 | 8 | 35 | 0.0 | 0.0 | 0.00 | 0.00 | 0.00 | 65 | 1004.3 |
| 20260503213021 | 8 | 336 | 0.0 | 1.6 | 0.00 | 0.00 | 0.00 | 66 | 1004.5 |
| 20260503211521 | 8 | 83 | 0.0 | 27.4 | 0.00 | 0.00 | 0.00 | 66 | 1004.4 |
| 20260503210020 | 8 | 42 | 0.0 | 6.4 | 0.00 | 0.00 | 0.00 | 65 | 1004.4 |
| 20260503204519 | 8 | 314 | 0.0 | 0.0 | 0.00 | 0.00 | 0.00 | 67 | 1004.5 |
| 20260503203040 | 8 | 74 | 0.0 | 0.0 | 0.00 | 0.00 | 0.00 | 61 | 1004.5 |
| 20260503201517 | 8 | 151 | 0.0 | 0.0 | 0.00 | 0.00 | 0.00 | 66 | 1004.5 |
| 20260503200017 | 7 | 125 | 3.2 | 38.6 | 0.00 | 0.00 | 0.00 | 69 | 1004.4 |
| 20260503194532 | 8 | 152 | 22.5 | 40.2 | 0.00 | 0.00 | 0.00 | 68 | 1004.4 |
| 20260503193015 | 8 | 157 | 22.5 | 37.0 | 0.00 | 0.00 | 0.00 | 68 | 1004.3 |
| 20260503191514 | 8 | 148 | 3.2 | 20.9 | 0.00 | 0.00 | 0.00 | 68 | 1004.2 |
| 20260503190017 | 8 | 154 | 29.0 | 45.1 | 0.00 | 0.00 | 0.00 | 74 | 1004.3 |
| 20260503184521 | 8 | 154 | 37.0 | 43.5 | 0.00 | 0.00 | 0.00 | 74 | 1004.3 |
| 20260503183009 | 8 | 167 | 27.4 | 38.6 | 0.00 | 0.00 | 0.00 | 75 | 1004.6 |
| 20260503181508 | 8 | 164 | 22.5 | 33.8 | 0.00 | 0.00 | 0.00 | 80 | 1004.8 |
| 20260503180008 | 8 | 181 | 9.7 | 25.7 | 0.00 | 0.00 | 0.00 | 76 | 1004.9 |
| 20260503174505 | 7 | 172 | 0.0 | 17.7 | 0.00 | 0.00 | 0.00 | 76 | 1005.0 |